Weather History for Keene, NH

Change the Weather History Date:

Thursday, November 14, 2013

  Actual Average Record
Temperature  
Mean Temperature 36 °F -  
Max Temperature 48 °F 46 °F 68 °F (1989)
Min Temperature 24 °F 26 °F 10 °F (1986)
Degree Days  
Heating Degree Days 29    
Moisture  
Dew Point 18 °F    
Average Humidity 54    
Maximum Humidity 74    
Minimum Humidity 34    
Precipitation  
Precipitation 0.00 in - - ()
Sea Level Pressure  
Sea Level Pressure 30.08 in    
Wind  
Wind Speed 4 mph (SW)    
Max Wind Speed 10 mph    
Max Gust Speed -    
Visibility 10 miles    
Events      
Averages and records for this station are not official NWS values.
T = Trace of Precipitation, MM = Missing Value Source: NWS Daily Summary

Daily Weather History Graph

Daily Weather History Graph

Search for Another Location

Airport:

Trip Planner

Search our weather history database for the weather conditions in past years. The results will help you decide how hot, cold, wet, or windy it might be!

Date:

Astronomy

Nov. 14, 2013 Rise Set
Actual Time 6:40 AM EST 4:26 PM EST
Civil Twilight 6:09 AM EST 4:56 PM EST
Nautical Twilight 5:35 AM EST 5:31 PM EST
Astronomical Twilight 5:02 AM EST 6:04 PM EST
Moon 2:49 PM EST (11/14) 3:28 AM EST (11/14)
Length of Visible Light 10h 47m
Length of Day
9h 46m
Waxing Gibbous, 91% of the Moon is Illuminated
Nov 14
Waxing Gibbous
Nov 17
Full
Nov 25
Last Quarter
Dec 2
New
Dec 9
First Quarter

Hourly Weather History & Observations

Time (EST) Temp. Windchill Dew Point Humidity Pressure Visibility Wind Dir Wind Speed Gust Speed Precip Events Conditions
12:15 AM 24.8 °F 20.5 °F 12.2 °F 59% 30.12 in 10.0 mi SW 3.5 mph - N/A   Clear
12:35 AM 24.8 °F 20.5 °F 15.8 °F 69% 30.11 in 10.0 mi WSW 3.5 mph - N/A   Clear
12:55 AM 26.6 °F - 15.8 °F 64% 30.10 in 10.0 mi Calm Calm - N/A   Clear
1:15 AM 26.6 °F - 14.0 °F 59% 30.10 in 10.0 mi Calm Calm - N/A   Clear
1:35 AM 26.6 °F 22.6 °F 14.0 °F 59% 30.10 in 10.0 mi SW 3.5 mph - N/A   Clear
1:55 AM 26.6 °F 22.6 °F 15.8 °F 64% 30.10 in 10.0 mi SW 3.5 mph - N/A   Clear
2:15 AM 26.6 °F 20.0 °F 14.0 °F 59% 30.08 in 10.0 mi SSW 5.8 mph - N/A   Clear
2:35 AM 30.2 °F 22.6 °F 15.8 °F 55% 30.08 in 10.0 mi South 8.1 mph - N/A   Clear
2:55 AM 28.4 °F 22.2 °F 14.0 °F 55% 30.08 in 10.0 mi SW 5.8 mph - N/A   Clear
3:15 AM 28.4 °F 21.2 °F 14.0 °F 55% 30.08 in 10.0 mi SSW 6.9 mph - N/A   Clear
3:35 AM 28.4 °F 21.2 °F 15.8 °F 59% 30.07 in 10.0 mi SSW 6.9 mph - N/A   Clear
3:55 AM 28.4 °F 21.2 °F 15.8 °F 59% 30.07 in 10.0 mi SSW 6.9 mph - N/A   Clear
4:15 AM 28.4 °F 22.2 °F 15.8 °F 59% 30.06 in 10.0 mi SW 5.8 mph - N/A   Clear
4:35 AM 28.4 °F 20.4 °F 15.8 °F 59% 30.06 in 10.0 mi SW 8.1 mph - N/A   Clear
4:55 AM 28.4 °F 22.2 °F 15.8 °F 59% 30.06 in 10.0 mi WSW 5.8 mph - N/A   Clear
5:15 AM 30.2 °F 23.4 °F 14.0 °F 51% 30.06 in 10.0 mi SW 6.9 mph - N/A   Clear
5:35 AM 28.4 °F 24.6 °F 14.0 °F 55% 30.06 in 10.0 mi SW 3.5 mph - N/A   Clear
5:55 AM 28.4 °F - 14.0 °F 55% 30.07 in 10.0 mi Calm Calm - N/A   Clear
6:15 AM 28.4 °F - 14.0 °F 55% 30.07 in 10.0 mi Calm Calm - N/A   Clear
6:35 AM 28.4 °F 23.3 °F 14.0 °F 55% 30.08 in 10.0 mi SW 4.6 mph - N/A   Clear
6:55 AM 26.6 °F 20.0 °F 12.2 °F 55% 30.08 in 10.0 mi SW 5.8 mph - N/A   Clear
7:15 AM 26.6 °F 21.2 °F 14.0 °F 59% 30.08 in 10.0 mi South 4.6 mph - N/A   Clear
7:35 AM 28.4 °F 24.6 °F 14.0 °F 55% 30.08 in 10.0 mi SSE 3.5 mph - N/A   Clear
7:55 AM 30.2 °F 25.4 °F 14.0 °F 51% 30.08 in 10.0 mi SW 4.6 mph - N/A   Clear
8:15 AM 30.2 °F 26.7 °F 15.8 °F 55% 30.08 in 10.0 mi South 3.5 mph - N/A   Clear
8:35 AM 33.8 °F 28.6 °F 15.8 °F 48% 30.08 in 10.0 mi SW 5.8 mph - N/A   Clear
8:55 AM 37.4 °F 32.1 °F 15.8 °F 41% 30.08 in 10.0 mi South 6.9 mph - N/A   Clear
9:15 AM 37.4 °F 33.8 °F 15.8 °F 41% 30.08 in 10.0 mi South 4.6 mph - N/A   Clear
9:35 AM 39.2 °F 35.9 °F 15.8 °F 39% 30.08 in 10.0 mi SSE 4.6 mph - N/A   Clear
9:55 AM 41.0 °F 38.0 °F 15.8 °F 36% 30.08 in 10.0 mi WSW 4.6 mph - N/A   Clear
10:15 AM 42.8 °F 38.0 °F 17.6 °F 36% 30.07 in 10.0 mi West 8.1 mph - N/A   Clear
10:35 AM 44.6 °F 39.7 °F 19.4 °F 37% 30.07 in 10.0 mi West 9.2 mph - N/A   Clear
10:55 AM 44.6 °F 39.2 °F 19.4 °F 37% 30.07 in 10.0 mi West 10.4 mph - N/A   Clear
11:15 AM 44.6 °F 39.7 °F 19.4 °F 37% 30.07 in 10.0 mi NNW 9.2 mph - N/A   Clear
11:35 AM 44.6 °F 40.7 °F 21.2 °F 39% 30.06 in 10.0 mi WNW 6.9 mph - N/A   Clear
11:55 AM 44.6 °F 40.2 °F 21.2 °F 39% 30.06 in 10.0 mi North 8.1 mph - N/A   Clear
12:15 PM 46.4 °F 42.4 °F 23.0 °F 40% 30.05 in 10.0 mi NW 8.1 mph - N/A   Clear
12:35 PM 46.4 °F 42.4 °F 23.0 °F 40% 30.05 in 10.0 mi NNW 8.1 mph - N/A   Clear
12:55 PM 46.4 °F 41.5 °F 24.8 °F 43% 30.05 in 10.0 mi NNW 10.4 mph - N/A   Clear
1:15 PM 46.4 °F 42.9 °F 24.8 °F 43% 30.05 in 10.0 mi NW 6.9 mph - N/A   Clear
1:35 PM 48.2 °F - 23.0 °F 37% 30.05 in 10.0 mi WNW 6.9 mph - N/A   Clear
1:55 PM 48.2 °F - 24.8 °F 40% 30.05 in 10.0 mi West 5.8 mph - N/A   Clear
2:15 PM 48.2 °F - 21.2 °F 34% 30.05 in 10.0 mi SW 8.1 mph - N/A   Clear
2:35 PM 48.2 °F - 23.0 °F 37% 30.05 in 10.0 mi West 8.1 mph - N/A   Clear
2:55 PM 48.2 °F - 21.2 °F 34% 30.05 in 10.0 mi WSW 9.2 mph - N/A   Clear
3:15 PM 48.2 °F - 21.2 °F 34% 30.05 in 10.0 mi WSW 9.2 mph - N/A   Clear
3:35 PM 46.4 °F - 23.0 °F 40% 30.05 in 10.0 mi Calm Calm - N/A   Clear
3:55 PM 46.4 °F 44.3 °F 21.2 °F 37% 30.05 in 10.0 mi WSW 4.6 mph - N/A   Clear
4:15 PM 42.8 °F - 21.2 °F 42% 30.06 in 10.0 mi Calm Calm - N/A   Clear
4:35 PM 39.2 °F - 21.2 °F 49% 30.07 in 10.0 mi Calm Calm - N/A   Clear
4:55 PM 37.4 °F - 21.2 °F 52% 30.07 in 10.0 mi Calm Calm - N/A   Clear
5:15 PM 35.6 °F - 21.2 °F 56% 30.08 in 10.0 mi Calm Calm - N/A   Clear
5:35 PM 35.6 °F - 21.2 °F 56% 30.08 in 10.0 mi Calm Calm - N/A   Clear
5:55 PM 33.8 °F 29.6 °F 19.4 °F 56% 30.08 in 10.0 mi SSW 4.6 mph - N/A   Clear
6:15 PM 30.2 °F 26.7 °F 19.4 °F 64% 30.08 in 10.0 mi SSW 3.5 mph - N/A   Clear
6:35 PM 32.0 °F - 21.2 °F 64% 30.08 in 10.0 mi Calm Calm - N/A   Clear
6:55 PM 30.2 °F 25.4 °F 19.4 °F 64% 30.08 in 10.0 mi South 4.6 mph - N/A   Clear
7:15 PM 30.2 °F - 19.4 °F 64% 30.09 in 10.0 mi Calm Calm - N/A   Clear
7:35 PM 28.4 °F - 19.4 °F 69% 30.09 in 10.0 mi Calm Calm - N/A   Clear
7:55 PM 28.4 °F - 19.4 °F 69% 30.09 in 10.0 mi Calm Calm - N/A   Clear
8:15 PM 28.4 °F - 19.4 °F 69% 30.09 in 10.0 mi Calm Calm - N/A   Clear
8:35 PM 28.4 °F - 19.4 °F 69% 30.09 in 10.0 mi Calm Calm - N/A   Clear
8:55 PM 26.6 °F - 19.4 °F 74% 30.10 in 10.0 mi Calm Calm - N/A   Clear
9:15 PM 26.6 °F 22.6 °F 19.4 °F 74% 30.10 in 10.0 mi SSW 3.5 mph - N/A   Clear
9:35 PM 26.6 °F - 19.4 °F 74% 30.10 in 10.0 mi Calm Calm - N/A   Clear
9:55 PM 26.6 °F - 19.4 °F 74% 30.10 in 10.0 mi Calm Calm - N/A   Clear
10:15 PM 24.8 °F - 17.6 °F 74% 30.10 in 10.0 mi Calm Calm - N/A   Clear
10:35 PM 24.8 °F - 17.6 °F 74% 30.10 in 10.0 mi Calm Calm - N/A   Clear
10:55 PM 24.8 °F - 17.6 °F 74% 30.10 in 10.0 mi Calm Calm - N/A   Clear
11:15 PM 24.8 °F - 17.6 °F 74% 30.11 in 10.0 mi Calm Calm - N/A   Clear
11:35 PM 24.8 °F - 17.6 °F 74% 30.12 in 10.0 mi Calm Calm - N/A   Clear
11:55 PM 24.8 °F - 17.6 °F 74% 30.12 in 10.0 mi Calm Calm - N/A   Clear